Skip Page Navigation
NASA JPL Caltech
NASA Logo - Jet Propulsion Laboratory + View the NASA Portal
+ Center for Near-Earth Object Studies
JPL Home Earth Solar System Stars & Galaxies Technology
JPL Solar System Dynamics
BODIES ORBITS EPHEMERIDES TOOLS PHYSICAL DATA DISCOVERY FAQ SITE MAP
IMPORTANT: The SSD Announcement email list is now available. Major changes are coming in the near future, including possible hostname and/or URL changes. To be notified of such changes, subscribe to this email list.

Please visit this page for more details.


JPL Small-Body Database Browser
Search: [ help ]  
212063 (2005 EB33)
Classification: Main-belt Asteroid          SPK-ID: 2212063
Ephemeris | Orbit Diagram | Orbital Elements | Mission Design | Physical Parameters | Discovery Circumstances | Close-Approach Data ]

[ show orbit diagram ]
Orbital Elements at Epoch 2458600.5 (2019-Apr-27.0) TDB
Reference: JPL 14 (heliocentric ecliptic J2000)
 Element Value Uncertainty (1-sigma)   Units 
e .06581918006233002 5.5609e-08  
a 2.388084612505029 1.8676e-08 au
q 2.23090284139048 1.3421e-07 au
i 4.927761335145308 4.3836e-06 deg
node 242.5678949192155 7.4033e-05 deg
peri 333.7537533497189 8.8341e-05 deg
M 255.0160430887246 4.9524e-05 deg
tp 2458993.591297348838
(2020-May-24.09129735)
0.00018574 TDB
period 1347.947545596685
3.69
1.5812e-05
4.329e-08
d
yr
n .2670727070767742 3.1329e-09 deg/d
Q 2.545266383619577 1.9905e-08 au
  Orbit Determination Parameters
   # obs. used (total)      305  
   data-arc span      7556 days (20.69 yr)  
   first obs. used      1998-05-01  
   last obs. used      2019-01-07  
   planetary ephem.      DE431  
   SB-pert. ephem.      SB431-N16  
   condition code      0  
   norm. resid. RMS      .56857  
   source      ORB  
   producer      Otto Matic  
   solution date      2019-Jul-14 02:51:07  

Additional Information
 Earth MOID = 1.2243 au 
 Jupiter MOID = 2.43296 au 
 T_jup = 3.526 
[ show covariance matrix ]

Ephemeris | Orbit Diagram | Orbital Elements | Mission Design | Physical Parameters | Discovery Circumstances | Close-Approach Data ]

Physical Parameter Table
Parameter Symbol Value Units Sigma Reference Notes
absolute magnitude H 16.5   n/a MPO418135  

212063 (2005 EB33)          Discovered 2005-Mar-04 by CSS at Catalina
Reference: 20090409/Numbers.arcLast Updated: 2009-04-10

[ show close-approach data ]
Ephemeris | Orbit Diagram | Orbital Elements | Mission Design | Physical Parameters | Discovery Circumstances | Close-Approach Data ]
ABOUT SSD CREDITS/AWARDS PRIVACY/COPYRIGHT GLOSSARY LINKS
FirstGov
(server date/time)  
NASA Home Page
Site Manager:   Ryan S. Park
Webmaster  Alan B. Chamberlin